Regional Weather Roundup
Issued by NWS Cleveland, OH

Home | Current Version | Previous Version | Graphics & Text | Print | Product List | Glossary On
Versions: 1 2 3 4 5 6 7 8 9 10 11 12 13 14 15 16 17 18 19 20 21 22 23 24 25 26 27 28 29 30 31 32 33 34 35 36 37 38 39 40 41 42 43 44 45 46 47 48 49 50
000
ASUS41 KCLE 270902
RWRCLE
OHIO REGIONAL WEATHER ROUNDUP
NATIONAL WEATHER SERVICE CLEVELAND, OH
500 AM EDT THU APR 27 2017

NOTE: "FAIR" INDICATES FEW OR NO CLOUDS BELOW 12,000 FEET WITH NO
SIGNIFICANT WEATHER AND/OR OBSTRUCTIONS TO VISIBILITY.

OHZ001>008-015>018-024>027-034-035-043-044-271000-
   NORTHWEST OHIO

CITY           SKY/WX    TMP DP  RH WIND       PRES   REMARKS
DEFIANCE       CLOUDY    69  53  56 S18G29    29.47F
FINDLAY        CLOUDY    71  53  52 S18       29.52S
TOLEDO EXPRESS CLOUDY    67  51  56 S9G17     29.49F
TOLEDO EXEC    MOCLDY    68  54  60 S15       29.52S
LIMA           CLOUDY    70  56  61 S18G26    29.53F
$$

OHZ009>014-019>023-028>033-038-089-271000-
   NORTHEAST OHIO

CITY           SKY/WX    TMP DP  RH WIND       PRES   REMARKS
CLE-HOPKINS    MOCLDY    69  50  50 S12       29.60F
CLE-LAKEFRONT  PTCLDY    69  52  54 S16       29.57F
CUY CO. ARPT   NOT AVBL
LORAIN-ELYRIA  CLOUDY    66  49  54 S14       29.58S
ASHTABULA      CLEAR     65  55  70 SE15      29.64S
AKRON-CANTON   CLEAR     64  52  64 S9        29.63F
WOOSTER        CLOUDY    66  52  60 S9        29.62S
MANSFIELD      CLOUDY    69  52  54 S14       29.61S
YOUNGSTOWN     PTCLDY    63  54  72 SE10      29.66S
$$

OHZ042-051>053-060>062-070>072-077>081-271000-
  SOUTHWEST OHIO

CITY           SKY/WX    TMP DP  RH WIND       PRES   REMARKS
CINC-COVINGTON CLOUDY    68  56  65 W17G25    29.60R
CINC-LUNKEN    CLOUDY    67  60  78 SW9       29.59R
HAMILTON       CLOUDY    71  57  61 SW8G17    29.59R
DAYTON         CLOUDY    70  55  59 S17G26    29.57R
WRIGHT-PAT AFB CLOUDY    70  56  60 S14G20    29.57S
DAYTON GENERAL CLOUDY    70  56  61 S17G25    29.57R
WILMINGTON     MOCLDY    67  56  67 S13       29.60R
$$

OHZ036-037-039>041-045>050-054>059-063>069-073>076-082>088-271000-
  CENTRAL AND SOUTHEAST OHIO

CITY           SKY/WX    TMP DP  RH WIND       PRES   REMARKS
COLUMBUS       MOCLDY    67  53  61 S5        29.62R
OSU AIRPORT    PTCLDY    68  55  63 S12       29.61R
BOLTON FIELD   PTCLDY    64  54  69 S7        29.62S
RICKENBACK AFB PTCLDY    61  53  74 SW5       29.62R
NEWARK         CLEAR     59  51  75 S5        29.63R
MARION         PTCLDY    70  52  52 S21G28    29.60R
LANCASTER      CLOUDY    61  52  72 E5        29.63R
ZANESVILLE     CLEAR     64  54  69 S5        29.63F
NEW PHILLY     NOT AVBL
$$



USA.gov is the U.S. government's official web portal to all federal, state and local government web resources and services.